This is the latest recevied weather packets stored in our database for station/object N4CRH-13. If no packets are shown the sender has not sent any weather packets the latest 1 day(s).
| Time | Temp. | Humidity | Pressure | Rain* | Wind** | Luminosity | Snow |
|---|---|---|---|---|---|---|---|
| 1778005791 | 0.56° C | 99% | 1290.4 hPa | 0 mm | 0.45 m/s, 270° | 118 W/m² | - |
| 1778005488 | 1.11° C | 99% | 1290.4 hPa | 1.78 mm | 0.89 m/s, 291° | 116 W/m² | - |
| 1778005184 | 1.11° C | 99% | 1290.6 hPa | 1.78 mm | 1.34 m/s, 272° | 143 W/m² | - |
| 1778004882 | 0.56° C | 99% | 1290.4 hPa | 0 mm | 1.34 m/s, 279° | 161 W/m² | - |
| 1778004579 | 0.56° C | 99% | 1290.7 hPa | 0 mm | 1.34 m/s, 291° | 138 W/m² | - |
| 1778004274 | 0.56° C | 99% | 1290.6 hPa | 0 mm | 1.79 m/s, 295° | 105 W/m² | - |
| 1778003971 | 1.11° C | 99% | 1290.7 hPa | 0 mm | 1.79 m/s, 298° | 105 W/m² | - |
| 1778003667 | 0.56° C | 99% | 1290.7 hPa | 1.78 mm | 1.34 m/s, 317° | 104 W/m² | - |
| 1778003364 | 0.56° C | 99% | 1290.7 hPa | 1.78 mm | 1.79 m/s, 242° | 117 W/m² | - |
| 1778003062 | 1.11° C | 99% | 1290.9 hPa | 0 mm | 2.24 m/s, 309° | 105 W/m² | - |
| 1778002757 | 0.56° C | 99% | 1290.7 hPa | 0 mm | 1.34 m/s, 295° | 128 W/m² | - |
| 1778002455 | 0.56° C | 99% | 1291.2 hPa | 0 mm | 1.34 m/s, 281° | 112 W/m² | - |
| 1778002152 | 0.56° C | 99% | 1290.9 hPa | 0 mm | 1.79 m/s, 293° | 112 W/m² | - |
| 1778001850 | 0.56° C | 99% | 1290.8 hPa | 0 mm | 1.34 m/s, 296° | 97 W/m² | - |
| 1778001549 | 0.56° C | 99% | 1291.3 hPa | 0 mm | 1.79 m/s, 295° | 93 W/m² | - |
| 1778001246 | 0.56° C | 99% | 1290.9 hPa | 0 mm | 1.79 m/s, 289° | 99 W/m² | - |
| 1778000942 | 0.56° C | 99% | 1291.2 hPa | 0 mm | 1.79 m/s, 272° | 90 W/m² | - |
| 1778000639 | 0.56° C | 99% | 1291.1 hPa | 0 mm | 3.13 m/s, 258° | 93 W/m² | - |
| 1778000334 | 0.56° C | 99% | 1291.4 hPa | 0 mm | 2.24 m/s, 280° | 95 W/m² | - |
| 1778000030 | 0.56° C | 99% | 1291.3 hPa | 0 mm | 2.68 m/s, 255° | 103 W/m² | - |
| 1777999726 | 0.56° C | 99% | 1291.3 hPa | 0 mm | 3.13 m/s, 273° | 81 W/m² | - |
| 1777999422 | 0.56° C | 99% | 1291.2 hPa | 0 mm | 2.68 m/s, 263° | 63 W/m² | - |
| 1777999121 | 0.56° C | 99% | 1291.3 hPa | 0 mm | 2.24 m/s, 295° | 69 W/m² | - |
| 1777998819 | 0.56° C | 99% | 1291.4 hPa | 0 mm | 2.24 m/s, 295° | 69 W/m² | - |
| 1777998518 | 0.56° C | 99% | 1291.7 hPa | 0 mm | 2.24 m/s, 291° | 93 W/m² | - |
* Rain latest hour (hover to see other rain measurements)
** Current wind speed in m/s (hover to see current wind gust speed)